User: anonymous   Login
Location: Keeble Observatory
(37.7625°N, 77.4755°W)
Time: 11:21:05
(UTC-05:00)
Language:

Cosmos 1484 Rocket - Orbit

View from above orbital plane
View from above orbital plane
View from above satellite
View from above satellite

Ground track
Ground track

The orbit data is extracted from the following two-line orbital elements,

1 14208U 83075B   17053.88285525  .00000360  00000-0  25398-4 0  9997
2 14208  97.3446  69.1283 0039994 163.3100 196.9456 15.10270522830250
Epoch (UTC): 22 February 2017 21:11:18
Eccentricity: 0.0039994
inclination: 97.3446°
perigee height: 508 km
apogee height: 563 km
right ascension of ascending node: 69.1283°
argument of perigee: 163.3100°
revolutions per day: 15.10270522
mean anomaly at epoch: 196.9456°
orbit number at epoch: 83025

The dashed part of the orbit path shows where the satellite is in the earth's shadow,  

DLR